Location: Munkebjergskolens Observatorium
(55.3864°N, 10.3987°E)
Time: 04:44:11
(UTC+02:00)

QB50P2 - Pass Details

Date: 08 April 2023
Orbit: 581 x 596 km, 98.0° (Epoch: 31 May)

Event Time Altitude Azimuth Distance (km) Brightness Sun altitude
Rises 04:17:52 0° 10° (N) 2,835 ? -17.6°
Reaches altitude 10° 04:20:11 10° 0° (N) 1,927 ? -17.3°
Maximum altitude 04:23:55 33° 297° (WNW) 1,007 ? -16.9°
Enters shadow 04:25:06 27° 265° (W) 1,131 ? -16.8°
